Regional Weather Roundup
Issued by NWS Nashville, TN

Home | Current Version | Previous Version | Text Only | Print | Product List | Glossary On
Versions: 1 2 3 4 5 6 7 8 9 10 11 12 13 14 15 16 17 18 19 20 21 22 23 24 25 26 27 28 29 30 31 32 33 34 35 36 37 38 39 40 41 42 43 44 45 46 47 48 49 50
000
ASUS44 KOHX 302310
RWROHX
MIDDLE TENNESSEE HOURLY WEATHER ROUNDUP
NATIONAL WEATHER SERVICE NASHVILLE TN
600 PM CDT THU JUL 30 2015

NOTE: "FAIR" INDICATES FEW OR NO CLOUDS BELOW 12,000 FEET WITH
NO SIGNIFICANT WEATHER AND/OR OBSTRUCTIONS TO VISIBILITY.

* THESE REPORTS ARE NOT UNDER NWS QUALITY CONTROL AND MAY NOT
  REPORT WEATHER SUCH AS PRECIPITATION AND FOG.


TNZ005>011-023>034-057-059-062>066-078-080-310000
...NORTHERN MIDDLE TENNESSEE...

CITY           SKY/WX    TMP DP  RH WIND       PRES   REMARKS
CLARKSVILLE    SUNNY     84  61  45 N10       30.06F
CROSSVILLE     SUNNY     81  60  48 N9G18     30.07F
DICKSON        SUNNY     82  63  51 N9        30.07F
NASHVILLE      SUNNY     86  61  42 N13G20    30.04F
ROCKWOOD       SUNNY     82  67  60 N9        30.05S
SMYRNA         SUNNY     89  62  40 N15       30.03F
$$
TNZ056-058-060-061-075>077-079-093>097-310000
...SOUTHERN MIDDLE TENNESSEE...

CITY           SKY/WX    TMP DP  RH WIND       PRES   REMARKS
COLUMBIA       SUNNY     86  64  48 N8        30.03S
LEWISBURG      SUNNY     86  56  35 N9        30.02F
MCMINNVILLE    SUNNY     84  68  58 N9        30.04S
SHELBYVILLE    SUNNY     86  63  45 N12       30.04S
TULLAHOMA      SUNNY     82  61  47 N8        30.04F
WINCHESTER     SUNNY     84  64  51 N9        30.02F
$$


...KEY TO REMARKS...
VSB - VISIBILITY IN MILES
WCI - WIND CHILL INDEX
HX  - HEAT INDEX




USA.gov is the U.S. government's official web portal to all federal, state and local government web resources and services.